{"data":{"norad_id":59638,"intl_designator":"2024-082H","name":"STARLINK-31727","alt_names":[],"object_type":"PAYLOAD","status":"ACTIVE","operator":null,"country":"US","launch_date":"2024-05-03","launch_site_code":"AFETR","launch_vehicle":null,"mission":null,"orbit_class":"UNKNOWN","rcs_meters":null,"size_class":null,"mass_kg":null,"dimensions":null,"purposes":["comms"],"wikipedia_slug":null,"has_3d_model":false,"image_url":null,"decayed_at":null,"tle_current":{"epoch":"2026-09-21T07:14:13.545888Z","epoch_age_seconds":98845,"freshness":"FRESH","line1":"1 59638U 24082H   26264.30154567 -.00000519  00000+0 -93537-5 0  9996","line2":"2 59638  43.0027 115.4911 0001159 268.0831  91.9888 15.27575376134778","mean_motion":15.27575376,"eccentricity":0.0001159,"inclination_deg":43.0027,"raan_deg":115.4911,"arg_perigee_deg":268.0831,"mean_anomaly_deg":91.9888,"bstar":-9.3537e-6,"rev_number":13477,"period_min":94.26703406091,"perigee_km":482.26772892078,"apogee_km":483.85815506733,"semimajor_km":6861.1999419941,"source":"CELESTRAK","updated_at":"2026-09-22T09:00:49.018544Z"}}}